Terminal Aerodrome Forecast
Issued by NWS Charleston, WV

Current Version | Previous Version | Graphics & Text | Print | Product List | Glossary On
Versions: 1 2 3 4 5 6 7 8 9 10 11 12 13 14 15 16 17 18 19 20 21 22
885
FTUS41 KRLX 250527
TAFPKB
TAF
KPKB 250527Z 2506/2606 00000KT P6SM OVC050
     FM250800 VRB03KT 1SM BR OVC010
     FM251200 33004KT 5SM BR OVC010
     FM251600 32004KT P6SM OVC015
     FM252000 32005KT P6SM OVC020
     FM260100 33006KT P6SM BKN035=

USA.gov is the U.S. government's official web portal to all federal, state and local government web resources and services.